2022/02/28 23:27:06+0000,-43.63,-31.06,-30.67,-31.81,-32.63,-40.15
2022/02/28 23:27:58+0000,-43.96,-29.88,-30.52,-36.43,-31.55,-40.54
2022/02/28 23:28:50+0000,-44.29,-29.68,-30.91,-35.29,-34.57,-39.65
2022/02/28 23:29:44+0000,-43.40,-29.60,-30.83,-30.11,-36.31,-42.03
2022/02/28 23:30:36+0000,-42.63,-31.76,-28.20,-29.43,-32.69,-39.99
2022/02/28 23:31:37+0000,-42.20,-31.80,-27.59,-33.10,-34.23,-39.85
2022/02/28 23:32:29+0000,-43.98,-29.73,-29.28,-35.03,-37.43,-40.63
2022/02/28 23:33:21+0000,-43.87,-31.16,-32.58,-33.88,-32.82,-38.63
2022/02/28 23:34:13+0000,-43.72,-25.18,-31.91,-36.15,-32.23,-38.70
2022/02/28 23:35:05+0000,-43.20,-31.13,-24.63,-33.32,-28.05,-41.53
2022/02/28 23:35:57+0000,-44.12,-28.18,-32.26,-33.12,-34.16,-39.06
2022/02/28 23:36:49+0000,-43.47,-31.02,-32.70,-33.05,-37.47,-39.66
2022/02/28 23:37:41+0000,-44.07,-28.64,-33.94,-34.35,-35.32,-41.26
2022/02/28 23:38:34+0000,-43.24,-28.78,-28.46,-37.41,-31.69,-39.63
2022/02/28 23:39:26+0000,-43.81,-30.36,-32.92,-35.65,-33.66,-40.33
2022/02/28 23:40:19+0000,-43.35,-31.35,-31.09,-34.27,-36.10,-39.50
2022/02/28 23:41:21+0000,-43.88,-31.05,-29.65,-33.90,-35.97,-40.27
2022/02/28 23:42:13+0000,-43.29,-29.78,-32.98,-29.73,-36.13,-40.70
2022/02/28 23:43:05+0000,-43.48,-30.46,-28.75,-32.52,-31.14,-38.87
2022/02/28 23:43:57+0000,-44.24,-29.25,-33.16,-33.62,-32.58,-39.14
2022/02/28 23:44:49+0000,-44.46,-29.73,-29.31,-47.98,-36.95,-40.35
2022/02/28 23:45:41+0000,-44.80,-30.38,-33.58,-33.28,-37.89,-40.59
2022/02/28 23:46:33+0000,-44.57,-29.64,-30.67,-42.92,-33.03,-27.84
2022/02/28 23:47:25+0000,-45.21,-30.86,-31.43,-37.01,-49.21,-38.77
2022/02/28 23:48:17+0000,-43.19,-27.79,-31.96,-41.07,-38.01,-38.56
2022/02/28 23:49:09+0000,-43.66,-27.07,-28.29,-33.06,-40.37,-35.41
2022/02/28 23:50:03+0000,-44.07,-30.41,-28.26,-41.64,-35.10,-40.54
2022/02/28 23:51:04+0000,-43.39,-29.78,-28.22,-40.10,-32.76,-41.49
2022/02/28 23:51:56+0000,-42.77,-30.20,-32.55,-37.02,-40.77,-39.85
2022/02/28 23:52:48+0000,-43.91,-27.63,-30.33,-42.12,-38.12,-39.75
2022/02/28 23:53:40+0000,-43.76,-29.86,-30.53,-35.83,-50.13,-39.61
2022/02/28 23:54:32+0000,-43.91,-25.03,-27.96,-43.77,-38.54,-42.66
2022/02/28 23:55:24+0000,-44.13,-30.27,-31.00,-38.24,-50.65,-42.53
2022/02/28 23:56:16+0000,-42.73,-27.84,-31.01,-34.88,-38.49,-44.83
2022/02/28 23:57:08+0000,-43.97,-29.89,-28.74,-38.05,-47.95,-38.43
2022/02/28 23:58:00+0000,-43.41,-28.55,-27.23,-35.94,-38.32,-43.58
2022/02/28 23:58:52+0000,-43.70,-30.26,-31.52,-35.57,-40.95,-41.83
2022/02/28 23:59:46+0000,-43.81,-29.93,-31.32,-38.89,-38.01,-44.64
2022/03/01 00:00:42+0000,-44.70,-29.90,-32.42,-37.33,-37.98,-43.53
2022/03/01 00:01:45+0000,-43.11,-30.85,-25.36,-37.33,-37.66,-43.94
2022/03/01 00:02:37+0000,-44.30,-29.06,-27.57,-35.07,-28.26,-43.94
2022/03/01 00:03:29+0000,-44.93,-28.52,-24.85,-35.73,-29.72,-42.99
2022/03/01 00:04:21+0000,-43.45,-30.46,-31.69,-36.78,-35.06,-41.82
2022/03/01 00:05:13+0000,-44.22,-26.65,-31.06,-33.61,-38.02,-43.49
2022/03/01 00:06:05+0000,-43.93,-30.74,-29.11,-33.00,-37.49,-44.01
2022/03/01 00:06:57+0000,-43.55,-29.73,-33.70,-35.51,-34.70,-43.43
2022/03/01 00:07:49+0000,-43.92,-30.29,-30.62,-35.80,-36.14,-44.13
2022/03/01 00:08:41+0000,-44.69,-25.75,-33.78,-36.87,-37.04,-43.87
2022/03/01 00:09:33+0000,-44.69,-31.07,-31.10,-38.45,-33.75,-43.92
2022/03/01 00:10:27+0000,-44.73,-24.86,-32.67,-34.58,-34.36,-43.06
2022/03/01 00:11:27+0000,-45.06,-28.91,-33.14,-33.96,-33.42,-42.83
2022/03/01 00:12:19+0000,-43.94,-28.85,-30.21,-37.97,-36.84,-43.63
2022/03/01 00:13:11+0000,-43.81,-29.89,-34.28,-36.67,-39.56,-43.03
2022/03/01 00:14:03+0000,-43.83,-24.82,-26.25,-44.71,-31.97,-43.38
2022/03/01 00:14:55+0000,-44.70,-29.07,-30.93,-33.77,-50.65,-44.13
2022/03/01 00:15:47+0000,-44.12,-29.17,-30.83,-44.23,-32.20,-46.06
2022/03/01 00:16:39+0000,-43.55,-28.87,-26.17,-36.43,-50.29,-46.36
2022/03/01 00:17:31+0000,-43.99,-23.91,-22.10,-36.73,-38.47,-44.44
2022/03/01 00:18:23+0000,-43.60,-24.11,-30.58,-35.01,-49.38,-43.73
2022/03/01 00:19:16+0000,-43.90,-30.75,-30.47,-43.27,-41.61,-43.41
2022/03/01 00:20:09+0000,-43.93,-29.93,-25.08,-36.72,-50.28,-43.16
2022/03/01 00:21:10+0000,-43.72,-29.13,-25.74,-38.47,-50.05,-42.92
2022/03/01 00:22:02+0000,-43.70,-29.02,-25.82,-43.73,-34.03,-43.44
2022/03/01 00:22:54+0000,-43.50,-26.53,-31.87,-36.41,-49.29,-42.47
2022/03/01 00:23:46+0000,-43.25,-29.50,-30.55,-33.45,-39.57,-44.29
2022/03/01 00:24:38+0000,-44.30,-28.26,-27.32,-33.47,-32.28,-43.88
2022/03/01 00:25:30+0000,-44.57,-26.08,-30.30,-31.26,-34.87,-43.92
2022/03/01 00:26:23+0000,-44.44,-24.74,-28.12,-32.26,-42.71,-44.02
2022/03/01 00:27:15+0000,-43.54,-28.79,-26.78,-35.99,-42.33,-43.72
2022/03/01 00:28:07+0000,-44.35,-27.84,-28.79,-34.22,-33.63,-43.58
2022/03/01 00:28:59+0000,-43.47,-22.14,-28.31,-31.00,-34.39,-44.20
2022/03/01 00:29:53+0000,-43.53,-26.53,-25.78,-32.19,-44.52,-44.44
2022/03/01 00:30:45+0000,-43.20,-27.71,-29.75,-35.24,-41.29,-45.16
2022/03/01 00:31:46+0000,-42.46,-28.92,-30.44,-35.17,-40.71,-43.81
2022/03/01 00:32:38+0000,-43.71,-23.84,-25.71,-37.17,-34.72,-44.11
2022/03/01 00:33:30+0000,-42.98,-24.45,-25.28,-32.15,-33.25,-44.12
2022/03/01 00:34:22+0000,-44.71,-24.38,-29.93,-31.10,-41.47,-42.20
2022/03/01 00:35:14+0000,-43.34,-29.00,-28.70,-39.57,-41.64,-44.12
2022/03/01 00:36:06+0000,-43.10,-27.94,-28.34,-38.84,-35.28,-44.44
2022/03/01 00:36:58+0000,-44.50,-26.44,-29.22,-30.18,-34.73,-42.79
2022/03/01 00:37:50+0000,-44.50,-29.44,-31.60,-29.79,-41.59,-43.56
2022/03/01 00:38:42+0000,-43.90,-27.41,-33.47,-37.53,-39.45,-43.44
2022/03/01 00:39:34+0000,-43.98,-24.84,-28.75,-31.68,-32.12,-43.12
2022/03/01 00:40:28+0000,-42.95,-21.88,-27.23,-31.18,-37.04,-42.48
2022/03/01 00:41:29+0000,-43.16,-24.21,-24.67,-33.61,-38.87,-42.90
2022/03/01 00:42:21+0000,-42.63,-30.22,-28.04,-31.26,-39.94,-43.47
2022/03/01 00:43:13+0000,-42.75,-26.73,-27.70,-39.73,-38.27,-43.77
2022/03/01 00:44:05+0000,-42.74,-30.53,-25.99,-39.65,-37.08,-43.51
2022/03/01 00:44:57+0000,-42.84,-24.35,-33.14,-30.54,-38.90,-43.41
2022/03/01 00:45:49+0000,-43.25,-30.28,-20.99,-33.53,-39.63,-43.13
2022/03/01 00:46:41+0000,-43.16,-24.26,-33.25,-35.61,-41.84,-43.63
2022/03/01 00:47:33+0000,-43.81,-24.74,-25.42,-47.32,-37.82,-46.75
2022/03/01 00:48:26+0000,-43.34,-26.46,-24.09,-32.19,-41.79,-45.18
2022/03/01 00:49:18+0000,-42.40,-21.85,-30.28,-33.71,-41.85,-43.63
2022/03/01 00:50:12+0000,-44.44,-26.12,-33.90,-36.89,-40.63,-43.44
2022/03/01 00:51:13+0000,-43.49,-26.92,-33.53,-35.42,-40.95,-43.14
2022/03/01 00:52:05+0000,-43.21,-30.19,-27.36,-39.26,-39.67,-43.03
2022/03/01 00:52:57+0000,-44.30,-23.69,-32.73,-35.24,-38.89,-42.70
2022/03/01 00:53:49+0000,-43.65,-25.75,-27.13,-42.33,-41.09,-43.57
2022/03/01 00:54:41+0000,-42.67,-26.79,-33.32,-37.63,-40.58,-43.56
2022/03/01 00:55:33+0000,-43.33,-19.33,-25.65,-45.92,-41.19,-43.25
2022/03/01 00:56:25+0000,-43.73,-20.76,-30.97,-38.81,-48.08,-43.54
2022/03/01 00:57:17+0000,-43.81,-25.70,-25.34,-44.95,-43.02,-41.35
2022/03/01 00:58:09+0000,-43.61,-25.21,-28.08,-39.05,-49.71,-43.21
2022/03/01 00:59:01+0000,-43.74,-24.44,-28.44,-35.30,-38.77,-43.30
2022/03/01 00:59:56+0000,-43.75,-21.10,-30.05,-37.44,-48.79,-42.89
2022/03/01 01:00:48+0000,-44.09,-23.68,-24.42,-45.35,-41.62,-42.78
2022/03/01 01:01:48+0000,-43.76,-23.18,-24.08,-44.64,-39.89,-43.36
2022/03/01 01:02:40+0000,-43.30,-21.47,-25.16,-37.00,-49.81,-42.70
2022/03/01 01:03:32+0000,-44.23,-22.26,-21.25,-38.25,-34.69,-42.26
2022/03/01 01:04:24+0000,-43.75,-22.91,-27.49,-37.23,-48.25,-43.02
2022/03/01 01:05:16+0000,-44.01,-25.27,-24.58,-39.46,-39.22,-42.38
2022/03/01 01:06:08+0000,-42.89,-23.53,-23.00,-35.11,-38.18,-44.78
2022/03/01 01:07:00+0000,-43.62,-23.16,-28.12,-32.60,-37.91,-43.56
2022/03/01 01:07:52+0000,-43.94,-28.10,-27.62,-33.56,-42.50,-44.32
2022/03/01 01:08:44+0000,-43.54,-26.06,-27.65,-37.37,-39.30,-44.02
2022/03/01 01:09:36+0000,-43.12,-22.34,-29.29,-38.24,-38.13,-45.10
2022/03/01 01:10:30+0000,-44.27,-21.92,-30.12,-30.16,-38.89,-44.81
2022/03/01 01:11:31+0000,-44.43,-26.53,-31.09,-35.37,-32.63,-44.96
2022/03/01 01:12:23+0000,-43.79,-26.95,-26.56,-34.52,-48.92,-45.75
2022/03/01 01:13:15+0000,-43.30,-22.34,-27.89,-39.02,-42.10,-45.53
2022/03/01 01:14:07+0000,-43.78,-23.95,-30.56,-36.23,-34.40,-44.89
2022/03/01 01:14:59+0000,-44.00,-24.61,-30.31,-36.07,-37.37,-44.56
2022/03/01 01:15:52+0000,-44.08,-30.30,-26.72,-37.80,-41.30,-44.83
2022/03/01 01:16:44+0000,-43.47,-23.10,-24.73,-32.93,-43.95,-43.98
2022/03/01 01:17:36+0000,-44.96,-29.97,-30.17,-32.15,-36.25,-45.01
2022/03/01 01:18:28+0000,-43.30,-26.98,-33.22,-35.69,-36.73,-43.80
2022/03/01 01:19:20+0000,-43.75,-30.63,-23.62,-34.83,-39.37,-45.10
2022/03/01 01:20:14+0000,-44.25,-20.99,-30.19,-32.17,-36.70,-45.01
2022/03/01 01:21:15+0000,-43.76,-20.77,-25.86,-31.49,-44.30,-44.85
2022/03/01 01:22:07+0000,-44.40,-21.08,-30.74,-29.63,-37.77,-45.30
2022/03/01 01:22:59+0000,-42.67,-25.96,-31.72,-32.71,-38.78,-45.35
2022/03/01 01:23:51+0000,-43.51,-29.18,-28.86,-32.71,-41.30,-44.03
2022/03/01 01:24:43+0000,-43.42,-24.58,-28.51,-31.20,-42.80,-45.13
2022/03/01 01:25:35+0000,-43.77,-29.07,-30.78,-29.74,-42.64,-44.34
2022/03/01 01:26:28+0000,-43.67,-20.03,-33.26,-31.82,-43.36,-45.05
2022/03/01 01:27:20+0000,-43.85,-28.96,-27.83,-34.17,-37.71,-44.16
2022/03/01 01:28:12+0000,-43.97,-25.26,-33.38,-35.78,-39.37,-42.04
2022/03/01 01:29:04+0000,-42.99,-23.02,-31.85,-43.63,-40.17,-43.12
2022/03/01 01:29:58+0000,-45.19,-21.30,-31.28,-31.74,-39.71,-43.96
2022/03/01 01:30:50+0000,-43.66,-29.93,-24.87,-30.90,-40.66,-43.41
2022/03/01 01:31:51+0000,-43.36,-29.70,-25.37,-30.56,-43.74,-43.32
2022/03/01 01:32:43+0000,-44.79,-20.44,-24.63,-33.26,-41.23,-42.22
2022/03/01 01:33:35+0000,-42.82,-30.16,-31.34,-32.38,-43.46,-44.07
2022/03/01 01:34:27+0000,-44.23,-23.43,-33.14,-35.12,-46.25,-44.97
2022/03/01 01:35:19+0000,-42.62,-25.68,-24.39,-38.46,-44.80,-43.44
2022/03/01 01:36:11+0000,-43.61,-19.86,-33.20,-32.78,-45.45,-43.69
2022/03/01 01:37:03+0000,-43.17,-22.37,-31.41,-40.33,-44.71,-43.31
2022/03/01 01:37:55+0000,-43.64,-22.05,-31.75,-35.51,-48.66,-42.56
2022/03/01 01:38:48+0000,-42.39,-20.59,-28.64,-43.97,-41.59,-43.42
2022/03/01 01:39:42+0000,-42.10,-20.50,-34.88,-33.85,-44.28,-43.07
2022/03/01 01:40:34+0000,-42.65,-23.16,-27.43,-47.17,-42.23,-43.65
2022/03/01 01:41:35+0000,-43.12,-28.23,-28.45,-37.01,-43.46,-42.38
2022/03/01 01:42:27+0000,-43.72,-20.23,-32.68,-35.84,-42.71,-43.35
2022/03/01 01:43:19+0000,-43.11,-23.00,-28.79,-46.47,-42.24,-43.69
2022/03/01 01:44:11+0000,-42.20,-22.22,-33.23,-39.05,-42.30,-43.34
2022/03/01 01:45:03+0000,-42.92,-19.22,-29.79,-47.31,-47.90,-43.57
2022/03/01 01:45:55+0000,-41.74,-21.56,-28.79,-31.25,-50.45,-43.31
2022/03/01 01:46:47+0000,-42.83,-23.35,-29.04,-44.20,-47.39,-43.01
2022/03/01 01:47:39+0000,-41.85,-23.87,-30.93,-39.00,-50.87,-43.16
2022/03/01 01:48:31+0000,-41.47,-18.43,-30.58,-35.00,-47.32,-43.32
2022/03/01 01:49:24+0000,-43.44,-21.14,-33.58,-33.66,-47.72,-43.19
2022/03/01 01:50:18+0000,-43.83,-23.94,-29.06,-44.64,-47.18,-44.15
2022/03/01 01:51:19+0000,-44.20,-24.08,-25.85,-49.41,-47.76,-44.89
2022/03/01 01:52:11+0000,-43.14,-24.83,-33.08,-33.66,-49.43,-43.60
2022/03/01 01:53:03+0000,-43.14,-20.96,-27.89,-47.36,-47.40,-40.91
2022/03/01 01:53:55+0000,-42.58,-21.72,-30.70,-37.78,-50.09,-40.76
2022/03/01 01:54:47+0000,-40.62,-20.14,-28.55,-38.90,-46.77,-41.90
2022/03/01 01:55:39+0000,-42.90,-22.93,-25.22,-38.96,-50.77,-40.70
2022/03/01 01:56:31+0000,-41.24,-21.46,-29.41,-40.26,-48.39,-40.39
2022/03/01 01:57:23+0000,-41.14,-21.59,-27.38,-41.68,-46.73,-40.44
2022/03/01 01:58:15+0000,-41.21,-21.95,-29.89,-37.19,-44.17,-41.80
2022/03/01 01:59:07+0000,-41.37,-23.53,-25.90,-38.46,-51.23,-41.14
2022/03/01 02:00:02+0000,-41.30,-23.35,-27.16,-44.05,-49.23,-44.05
2022/03/01 02:01:01+0000,-39.25,-21.58,-27.26,-41.94,-42.96,-43.56
2022/03/01 02:01:53+0000,-42.96,-23.02,-29.58,-41.85,-44.93,-43.88
2022/03/01 02:02:45+0000,-42.44,-23.13,-30.24,-41.14,-44.07,-41.99
2022/03/01 02:03:37+0000,-41.46,-26.20,-27.50,-39.55,-43.51,-42.12
2022/03/01 02:04:29+0000,-44.04,-20.59,-26.81,-37.54,-44.44,-42.02
2022/03/01 02:05:22+0000,-43.82,-29.55,-30.69,-41.49,-42.78,-41.45
2022/03/01 02:06:14+0000,-42.62,-25.58,-31.22,-37.87,-44.35,-40.95
2022/03/01 02:07:06+0000,-41.74,-29.44,-26.54,-38.59,-43.80,-41.65
2022/03/01 02:07:58+0000,-43.02,-20.75,-32.97,-39.07,-44.95,-41.51
2022/03/01 02:08:50+0000,-43.65,-25.74,-31.26,-43.06,-43.79,-41.85
2022/03/01 02:09:44+0000,-44.09,-19.18,-30.91,-39.41,-44.09,-45.26
2022/03/01 02:10:36+0000,-39.97,-28.98,-26.38,-37.20,-44.57,-44.14
2022/03/01 02:11:37+0000,-36.61,-22.35,-29.89,-37.34,-44.72,-44.35
2022/03/01 02:12:29+0000,-45.06,-20.21,-27.80,-42.74,-44.25,-45.06
2022/03/01 02:13:21+0000,-42.04,-26.96,-26.37,-40.42,-43.38,-44.20
2022/03/01 02:14:13+0000,-44.09,-20.34,-30.76,-37.32,-42.64,-45.05
2022/03/01 02:15:05+0000,-39.84,-29.62,-28.73,-38.00,-44.38,-44.79
2022/03/01 02:15:58+0000,-42.95,-18.49,-35.19,-42.32,-44.74,-45.08
2022/03/01 02:16:50+0000,-43.09,-30.40,-28.08,-41.59,-42.97,-45.15
2022/03/01 02:17:42+0000,-40.24,-21.24,-33.47,-38.47,-44.43,-44.61
2022/03/01 02:18:34+0000,-43.80,-19.98,-30.52,-45.81,-45.27,-45.54
2022/03/01 02:19:26+0000,-43.76,-18.64,-31.59,-41.97,-45.39,-44.38
2022/03/01 02:20:20+0000,-45.02,-29.68,-26.72,-39.06,-45.38,-45.78
2022/03/01 02:21:22+0000,-45.21,-21.92,-30.53,-39.90,-42.56,-44.76
2022/03/01 02:22:14+0000,-43.97,-24.16,-29.22,-38.80,-44.19,-44.87
2022/03/01 02:23:06+0000,-42.82,-29.47,-31.26,-38.60,-45.40,-45.75
2022/03/01 02:23:58+0000,-43.04,-19.97,-32.71,-39.03,-44.15,-46.11
2022/03/01 02:24:50+0000,-43.80,-30.44,-29.04,-37.48,-44.46,-45.54
2022/03/01 02:25:42+0000,-42.06,-19.25,-34.41,-40.38,-43.77,-45.80
2022/03/01 02:26:34+0000,-43.94,-19.26,-32.79,-44.44,-44.58,-46.03
2022/03/01 02:27:26+0000,-44.50,-20.80,-34.59,-39.54,-45.47,-45.92
2022/03/01 02:28:18+0000,-44.41,-20.88,-26.44,-44.12,-44.56,-44.63
2022/03/01 02:29:10+0000,-42.21,-21.80,-30.76,-40.60,-45.08,-43.96
2022/03/01 02:30:05+0000,-41.27,-30.17,-30.22,-38.81,-44.82,-45.55
2022/03/01 02:31:07+0000,-40.50,-25.57,-31.09,-41.85,-45.40,-44.11
2022/03/01 02:31:59+0000,-44.21,-22.50,-29.69,-43.39,-44.54,-43.89
2022/03/01 02:32:51+0000,-43.51,-30.30,-32.00,-42.47,-45.47,-44.25
2022/03/01 02:33:43+0000,-43.44,-21.95,-33.57,-41.64,-46.04,-43.87
2022/03/01 02:34:35+0000,-43.32,-29.10,-31.62,-43.49,-45.46,-43.97
2022/03/01 02:35:27+0000,-43.09,-24.01,-32.96,-42.78,-46.00,-43.77
2022/03/01 02:36:19+0000,-41.60,-19.70,-32.92,-45.51,-45.10,-43.49
2022/03/01 02:37:11+0000,-41.98,-20.47,-34.53,-40.92,-45.06,-43.66
2022/03/01 02:38:03+0000,-42.02,-23.21,-29.39,-45.57,-45.96,-43.88
2022/03/01 02:38:55+0000,-43.18,-20.61,-31.90,-41.45,-45.16,-44.10
2022/03/01 02:39:50+0000,-41.17,-29.59,-32.58,-43.81,-45.13,-44.17
2022/03/01 02:40:42+0000,-42.75,-22.89,-34.37,-41.35,-45.23,-43.04
2022/03/01 02:41:43+0000,-43.53,-23.79,-32.03,-41.96,-45.08,-44.18
2022/03/01 02:42:35+0000,-41.98,-29.30,-31.07,-44.72,-45.67,-43.33
2022/03/01 02:43:27+0000,-40.13,-25.08,-34.97,-39.99,-44.99,-43.57
2022/03/01 02:44:19+0000,-42.71,-22.44,-31.38,-44.40,-45.93,-44.58
2022/03/01 02:45:11+0000,-41.68,-21.63,-34.87,-42.82,-45.55,-44.86
2022/03/01 02:46:03+0000,-40.09,-22.48,-33.16,-45.12,-46.10,-44.08
2022/03/01 02:46:55+0000,-39.98,-22.10,-31.30,-42.99,-46.68,-45.15
2022/03/01 02:47:47+0000,-39.55,-24.21,-30.09,-44.84,-45.99,-45.27
2022/03/01 02:48:39+0000,-40.33,-23.23,-32.09,-41.86,-45.43,-44.62
2022/03/01 02:49:31+0000,-42.28,-25.28,-32.37,-44.72,-45.75,-45.32
2022/03/01 02:50:26+0000,-41.14,-23.49,-34.44,-41.83,-46.51,-45.31
2022/03/01 02:51:27+0000,-40.64,-24.62,-34.47,-41.06,-47.00,-45.31
2022/03/01 02:52:19+0000,-40.09,-22.27,-30.00,-44.40,-45.70,-44.83
2022/03/01 02:53:11+0000,-40.88,-21.49,-34.18,-41.98,-46.26,-46.53
2022/03/01 02:54:03+0000,-42.11,-25.50,-32.36,-47.61,-46.70,-47.12
2022/03/01 02:54:55+0000,-40.46,-20.94,-31.49,-44.16,-45.94,-45.34
2022/03/01 02:55:47+0000,-40.86,-22.29,-30.99,-45.78,-46.13,-46.13
2022/03/01 02:56:39+0000,-41.04,-21.15,-33.57,-42.14,-46.19,-42.05
2022/03/01 02:57:31+0000,-41.66,-26.30,-33.26,-41.21,-45.72,-41.58
2022/03/01 02:58:23+0000,-40.89,-26.98,-30.68,-40.64,-45.64,-41.63
2022/03/01 02:59:15+0000,-40.95,-21.65,-33.25,-44.26,-46.41,-42.17
2022/03/01 03:00:10+0000,-42.42,-22.06,-31.60,-45.58,-46.18,-43.65
2022/03/01 03:01:12+0000,-41.75,-19.93,-34.33,-43.03,-46.13,-44.27
2022/03/01 03:02:04+0000,-41.23,-25.95,-33.03,-43.11,-46.31,-44.03
2022/03/01 03:02:56+0000,-40.50,-23.62,-34.26,-41.76,-46.69,-44.04
2022/03/01 03:03:48+0000,-40.08,-25.09,-32.14,-43.71,-45.71,-44.33
2022/03/01 03:04:40+0000,-39.35,-24.75,-31.54,-43.10,-45.76,-45.09
2022/03/01 03:05:32+0000,-40.82,-24.87,-32.67,-43.45,-46.17,-44.60
2022/03/01 03:06:24+0000,-36.63,-27.29,-34.06,-40.77,-45.80,-42.82
2022/03/01 03:07:16+0000,-38.94,-18.89,-32.77,-41.42,-46.84,-42.77
2022/03/01 03:08:08+0000,-41.13,-21.56,-31.18,-42.84,-46.93,-42.53
2022/03/01 03:09:00+0000,-41.19,-26.15,-31.26,-40.78,-45.68,-42.60
2022/03/01 03:09:55+0000,-36.54,-24.31,-32.39,-42.71,-45.65,-42.35
2022/03/01 03:10:47+0000,-39.29,-21.31,-32.05,-42.36,-46.59,-42.30
2022/03/01 03:11:47+0000,-41.10,-21.72,-31.50,-42.03,-45.73,-42.66
2022/03/01 03:12:39+0000,-37.36,-22.72,-33.36,-43.04,-46.34,-44.45
2022/03/01 03:13:31+0000,-38.03,-24.70,-31.95,-43.47,-46.15,-43.09
2022/03/01 03:14:23+0000,-41.69,-24.06,-32.46,-44.00,-45.42,-43.22
2022/03/01 03:15:15+0000,-41.41,-21.39,-32.29,-43.66,-46.22,-42.87
2022/03/01 03:16:07+0000,-34.61,-22.66,-33.12,-42.19,-46.33,-43.27
2022/03/01 03:16:59+0000,-42.30,-26.06,-31.38,-43.89,-46.80,-43.88
2022/03/01 03:17:51+0000,-40.59,-28.87,-32.28,-42.26,-44.68,-44.31
2022/03/01 03:18:43+0000,-41.72,-22.96,-32.72,-41.86,-44.79,-44.47
2022/03/01 03:19:35+0000,-36.60,-24.07,-32.74,-43.20,-44.28,-44.00
2022/03/01 03:20:29+0000,-42.34,-23.26,-31.95,-42.82,-44.43,-43.76
2022/03/01 03:21:31+0000,-40.30,-24.41,-32.60,-44.15,-44.00,-44.21
2022/03/01 03:22:23+0000,-40.46,-25.54,-31.69,-42.80,-44.91,-44.61
2022/03/01 03:23:15+0000,-37.96,-20.73,-30.55,-43.78,-44.25,-44.80
2022/03/01 03:24:08+0000,-41.59,-23.40,-32.44,-43.85,-43.34,-44.45
2022/03/01 03:25:00+0000,-42.79,-24.58,-31.64,-46.56,-44.86,-45.85
2022/03/01 03:25:52+0000,-37.77,-28.03,-30.99,-47.64,-44.72,-47.13
2022/03/01 03:26:44+0000,-32.15,-24.60,-31.50,-43.95,-44.11,-44.44
2022/03/01 03:27:36+0000,-42.16,-29.81,-31.66,-43.77,-44.99,-44.40
2022/03/01 03:28:28+0000,-41.56,-24.69,-33.71,-43.88,-44.61,-44.40
2022/03/01 03:29:20+0000,-39.87,-30.28,-33.10,-44.20,-44.51,-43.89
2022/03/01 03:30:14+0000,-41.90,-23.53,-32.69,-42.65,-44.77,-43.49
2022/03/01 03:31:16+0000,-41.69,-23.30,-31.98,-44.11,-45.08,-43.73
2022/03/01 03:32:08+0000,-38.97,-23.12,-32.85,-43.96,-45.00,-44.24
2022/03/01 03:33:00+0000,-42.12,-24.35,-32.97,-44.40,-44.36,-43.71
2022/03/01 03:33:52+0000,-38.04,-26.20,-31.72,-44.45,-44.74,-44.22
2022/03/01 03:34:44+0000,-44.34,-21.98,-31.40,-42.80,-44.35,-43.90
2022/03/01 03:35:36+0000,-35.93,-29.56,-30.86,-43.65,-44.78,-43.27
2022/03/01 03:36:28+0000,-37.85,-25.24,-32.74,-43.62,-44.74,-43.63
2022/03/01 03:37:20+0000,-40.36,-29.53,-30.75,-44.22,-44.12,-44.36
2022/03/01 03:38:12+0000,-38.13,-19.97,-34.01,-43.53,-44.56,-43.64
2022/03/01 03:39:04+0000,-40.53,-28.86,-31.99,-43.93,-44.63,-43.07
2022/03/01 03:39:59+0000,-42.88,-24.05,-33.40,-43.86,-44.72,-43.75
2022/03/01 03:40:51+0000,-39.01,-28.99,-31.24,-44.08,-45.41,-44.91
2022/03/01 03:41:52+0000,-41.00,-23.55,-29.68,-44.41,-45.20,-43.55
2022/03/01 03:42:44+0000,-43.04,-21.94,-30.90,-43.96,-44.90,-43.59
2022/03/01 03:43:36+0000,-41.96,-30.63,-33.56,-44.29,-43.95,-40.91
2022/03/01 03:44:28+0000,-42.90,-24.09,-33.57,-43.44,-44.98,-42.00
2022/03/01 03:45:20+0000,-39.72,-30.08,-32.77,-44.55,-44.36,-41.24
2022/03/01 03:46:12+0000,-40.42,-18.65,-34.33,-43.69,-45.06,-41.30
2022/03/01 03:47:04+0000,-40.55,-28.15,-33.67,-43.75,-45.19,-42.14
2022/03/01 03:47:56+0000,-40.51,-25.44,-34.59,-44.04,-44.56,-41.42
2022/03/01 03:48:49+0000,-40.75,-18.87,-33.90,-44.70,-45.85,-41.95
2022/03/01 03:49:43+0000,-41.47,-22.03,-33.63,-44.49,-45.15,-41.36
2022/03/01 03:50:35+0000,-39.02,-29.38,-33.12,-45.06,-45.49,-41.60
2022/03/01 03:51:36+0000,-40.52,-27.45,-33.14,-44.05,-44.69,-41.90
2022/03/01 03:52:28+0000,-38.03,-25.19,-33.53,-44.15,-45.43,-41.84
2022/03/01 03:53:20+0000,-38.55,-30.97,-34.27,-43.30,-45.07,-41.73
2022/03/01 03:54:12+0000,-39.91,-24.31,-33.79,-44.14,-44.49,-42.20
2022/03/01 03:55:04+0000,-39.40,-25.08,-33.02,-44.29,-44.79,-42.54
2022/03/01 03:55:56+0000,-40.02,-22.76,-33.12,-44.36,-44.52,-45.13
2022/03/01 03:56:48+0000,-38.26,-28.14,-33.30,-47.69,-44.96,-44.84
2022/03/01 03:57:40+0000,-37.99,-27.08,-33.70,-45.82,-44.09,-43.33
2022/03/01 03:58:32+0000,-40.78,-21.09,-33.09,-45.59,-45.02,-42.83
2022/03/01 03:59:24+0000,-39.99,-19.63,-33.88,-44.78,-44.34,-43.04
2022/03/01 04:00:18+0000,-38.03,-24.99,-34.34,-44.18,-46.33,-42.84
2022/03/01 04:01:19+0000,-40.39,-23.98,-33.98,-44.39,-44.46,-43.11
2022/03/01 04:02:11+0000,-35.65,-24.76,-34.36,-43.95,-44.24,-42.96
2022/03/01 04:03:03+0000,-39.89,-22.35,-32.60,-43.76,-45.14,-43.11
2022/03/01 04:03:55+0000,-35.06,-20.10,-33.58,-44.02,-44.22,-42.89
2022/03/01 04:04:47+0000,-35.14,-25.07,-34.57,-44.48,-45.21,-42.59
2022/03/01 04:05:39+0000,-35.46,-26.40,-34.02,-43.02,-45.55,-42.33
2022/03/01 04:06:31+0000,-41.04,-21.00,-33.08,-43.91,-44.38,-43.32
2022/03/01 04:07:23+0000,-40.91,-24.16,-32.87,-44.81,-45.02,-42.31
2022/03/01 04:08:16+0000,-41.35,-26.66,-33.41,-45.24,-44.64,-42.93
2022/03/01 04:09:08+0000,-37.47,-28.02,-31.95,-44.67,-44.98,-43.06
2022/03/01 04:10:02+0000,-39.14,-24.37,-33.12,-45.74,-44.51,-43.70
2022/03/01 04:11:03+0000,-41.81,-20.58,-33.10,-44.60,-44.27,-43.17
2022/03/01 04:11:55+0000,-35.86,-22.38,-34.01,-44.30,-44.31,-43.27
2022/03/01 04:12:47+0000,-37.03,-24.33,-31.91,-44.01,-45.10,-42.89
2022/03/01 04:13:39+0000,-39.61,-25.85,-31.92,-44.30,-45.32,-42.91
2022/03/01 04:14:31+0000,-38.05,-21.96,-33.56,-44.99,-45.09,-42.12
2022/03/01 04:15:23+0000,-36.04,-24.99,-34.18,-44.25,-44.12,-41.11
2022/03/01 04:16:15+0000,-37.02,-25.28,-34.62,-45.06,-44.64,-41.96
2022/03/01 04:17:07+0000,-40.90,-25.25,-34.45,-44.38,-44.05,-42.20
2022/03/01 04:17:59+0000,-42.72,-26.37,-34.37,-44.16,-44.97,-41.98
2022/03/01 04:18:52+0000,-35.56,-28.06,-33.43,-45.00,-45.47,-42.27
2022/03/01 04:19:45+0000,-39.29,-25.09,-34.32,-45.93,-46.03,-41.94
2022/03/01 04:20:37+0000,-38.64,-25.17,-34.51,-44.53,-46.16,-42.42
2022/03/01 04:21:39+0000,-40.42,-25.70,-33.83,-44.94,-45.12,-42.94
2022/03/01 04:22:31+0000,-41.08,-27.81,-35.06,-44.91,-45.87,-42.20
2022/03/01 04:23:23+0000,-35.72,-25.83,-35.86,-44.85,-45.81,-41.99
2022/03/01 04:24:15+0000,-41.17,-26.71,-34.90,-44.69,-46.88,-42.39
2022/03/01 04:25:07+0000,-37.25,-26.01,-33.62,-44.14,-45.92,-42.95
2022/03/01 04:25:59+0000,-41.79,-26.54,-32.48,-44.82,-46.87,-42.77
2022/03/01 04:26:51+0000,-35.41,-31.20,-33.83,-45.75,-46.46,-41.67
2022/03/01 04:27:43+0000,-42.55,-26.06,-34.57,-48.97,-45.36,-47.04
2022/03/01 04:28:35+0000,-38.23,-30.98,-33.90,-49.76,-45.86,-46.15
2022/03/01 04:29:27+0000,-36.47,-26.70,-34.89,-46.24,-46.15,-43.83
2022/03/01 04:30:21+0000,-37.54,-30.75,-34.63,-45.97,-46.34,-42.55
2022/03/01 04:31:22+0000,-37.74,-28.16,-33.69,-44.38,-45.71,-42.26
2022/03/01 04:32:14+0000,-42.73,-25.49,-34.81,-44.74,-46.27,-42.26
2022/03/01 04:33:06+0000,-38.85,-30.88,-34.51,-44.75,-45.90,-41.83
2022/03/01 04:33:58+0000,-41.76,-27.97,-34.40,-45.42,-45.87,-42.79
2022/03/01 04:34:50+0000,-36.44,-31.08,-35.28,-45.63,-46.10,-42.58
2022/03/01 04:35:42+0000,-41.04,-29.02,-34.80,-44.73,-46.46,-42.02
2022/03/01 04:36:34+0000,-41.97,-30.24,-32.91,-45.28,-45.18,-41.36
2022/03/01 04:37:26+0000,-35.89,-27.21,-34.22,-44.34,-45.49,-42.03
2022/03/01 04:38:19+0000,-34.61,-27.89,-34.57,-45.08,-46.18,-41.28
2022/03/01 04:39:11+0000,-39.74,-27.94,-33.85,-45.05,-46.40,-41.49
2022/03/01 04:40:05+0000,-40.59,-29.60,-32.20,-44.64,-46.23,-42.05
2022/03/01 04:41:05+0000,-40.03,-30.79,-34.10,-45.01,-45.97,-41.72
2022/03/01 04:41:57+0000,-38.10,-28.67,-33.33,-44.74,-45.90,-41.80
2022/03/01 04:42:49+0000,-36.34,-26.66,-33.25,-44.93,-46.47,-43.01